Time,TemperatureF,DewpointF,PressureIn,WindDirection,WindDirectionDegrees,WindSpeedMPH,WindSpeedGustMPH,Humidity,HourlyPrecipIn,Conditions,Clouds,dailyrainin,SoftwareType,DateUTC
2013-01-10 00:00:00,30.1,23.1,30.33,SSW,200,6.0,11.0,75,0.00,,,0.00,VWS V14.01,2013-01-10 06:00:00,
2013-01-10 00:04:00,30.2,23.2,30.34,SSE,163,7.0,9.0,75,0.00,,,0.00,VWS V14.01,2013-01-10 06:04:00,
2013-01-10 00:09:00,30.4,23.4,30.34,SSE,155,5.0,9.0,75,0.00,,,0.00,VWS V14.01,2013-01-10 06:09:00,
2013-01-10 00:14:00,30.4,23.4,30.33,South,190,5.0,6.0,75,0.00,,,0.00,VWS V14.01,2013-01-10 06:14:00,
2013-01-10 00:15:00,30.4,23.4,30.33,South,188,5.0,9.0,75,0.00,,,0.00,VWS V14.01,2013-01-10 06:15:00,
2013-01-10 00:20:00,30.5,23.5,30.34,South,182,4.0,12.0,75,0.00,,,0.00,VWS V14.01,2013-01-10 06:20:00,
2013-01-10 00:25:00,30.5,23.5,30.34,South,186,7.0,12.0,75,0.00,,,0.00,VWS V14.01,2013-01-10 06:25:00,
2013-01-10 00:30:00,30.5,23.9,30.34,South,175,6.0,7.0,76,0.00,,,0.00,VWS V14.01,2013-01-10 06:30:00,
2013-01-10 00:35:00,30.6,24.0,30.34,SSW,195,4.0,11.0,76,0.00,,,0.00,VWS V14.01,2013-01-10 06:35:00,
2013-01-10 00:40:00,30.6,24.0,30.34,SW,220,6.0,11.0,76,0.00,,,0.00,VWS V14.01,2013-01-10 06:40:00,
2013-01-10 00:45:00,30.7,24.4,30.34,South,187,4.0,10.0,77,0.00,,,0.00,VWS V14.01,2013-01-10 06:45:00,
2013-01-10 00:50:00,30.8,24.5,30.34,South,172,5.0,10.0,77,0.00,,,0.00,VWS V14.01,2013-01-10 06:50:00,
2013-01-10 00:55:00,31.0,24.6,30.34,SSW,192,6.0,10.0,77,0.00,,,0.00,VWS V14.01,2013-01-10 06:55:00,
2013-01-10 01:00:00,31.2,24.8,30.34,South,176,7.0,10.0,77,0.00,,,0.00,VWS V14.01,2013-01-10 07:00:00,
2013-01-10 01:05:00,31.4,25.0,30.34,SSW,202,9.0,11.0,77,0.00,,,0.00,VWS V14.01,2013-01-10 07:05:00,
2013-01-10 01:10:00,31.5,25.1,30.34,West,277,4.0,11.0,77,0.00,,,0.00,VWS V14.01,2013-01-10 07:10:00,
2013-01-10 01:15:00,31.5,25.1,30.34,SSW,194,7.0,11.0,77,0.00,,,0.00,VWS V14.01,2013-01-10 07:15:00,
2013-01-10 01:16:00,31.6,25.2,30.34,South,186,6.0,8.0,77,0.00,,,0.00,VWS V14.01,2013-01-10 07:16:00,
2013-01-10 01:21:00,31.9,25.2,30.34,SSW,194,4.0,11.0,76,0.00,,,0.00,VWS V14.01,2013-01-10 07:21:00,
2013-01-10 01:26:00,32.0,25.3,30.34,SSW,209,5.0,12.0,76,0.00,,,0.00,VWS V14.01,2013-01-10 07:26:00,
2013-01-10 01:30:00,32.0,25.3,30.34,SSE,167,7.0,12.0,76,0.00,,,0.00,VWS V14.01,2013-01-10 07:30:00,
2013-01-10 01:31:00,32.0,25.3,30.34,SSE,167,7.0,7.0,76,0.00,,,0.00,VWS V14.01,2013-01-10 07:31:00,
2013-01-10 01:36:00,32.0,25.3,30.34,SSE,167,7.0,7.0,76,0.00,,,0.00,VWS V14.01,2013-01-10 07:36:00,
2013-01-10 01:41:00,32.5,25.8,30.33,SSW,206,10.0,12.0,76,0.00,,,0.00,VWS V14.01,2013-01-10 07:41:00,
2013-01-10 01:45:00,32.6,25.6,30.34,West,260,7.0,13.0,75,0.00,,,0.00,VWS V14.01,2013-01-10 07:45:00,
2013-01-10 01:46:00,32.6,25.6,30.34,South,187,6.0,10.0,75,0.00,,,0.00,VWS V14.01,2013-01-10 07:46:00,
2013-01-10 01:51:00,32.8,25.8,30.34,SSW,192,8.0,11.0,75,0.00,,,0.00,VWS V14.01,2013-01-10 07:51:00,
2013-01-10 01:56:00,33.0,26.0,30.34,SSW,205,12.0,15.0,75,0.00,,,0.00,VWS V14.01,2013-01-10 07:56:00,
2013-01-10 02:00:00,33.2,25.8,30.34,SSW,196,10.0,15.0,74,0.00,,,0.00,VWS V14.01,2013-01-10 08:00:00,
2013-01-10 02:01:00,33.3,25.9,30.34,South,190,5.0,13.0,74,0.00,,,0.00,VWS V14.01,2013-01-10 08:01:00,
2013-01-10 02:06:00,33.4,26.0,30.34,SSE,150,6.0,13.0,74,0.00,,,0.00,VWS V14.01,2013-01-10 08:06:00,
2013-01-10 02:12:00,33.7,26.3,30.34,SW,230,11.0,13.0,74,0.00,,,0.00,VWS V14.01,2013-01-10 08:12:00,
2013-01-10 02:15:00,33.8,26.4,30.34,South,189,5.0,16.0,74,0.00,,,0.00,VWS V14.01,2013-01-10 08:15:00,
2013-01-10 02:17:00,33.9,26.5,30.34,SW,229,9.0,11.0,74,0.00,,,0.00,VWS V14.01,2013-01-10 08:17:00,
2013-01-10 02:22:00,34.1,26.4,30.33,South,169,12.0,12.0,73,0.00,,,0.00,VWS V14.01,2013-01-10 08:22:00,
2013-01-10 02:27:00,34.3,26.6,30.33,SSW,209,6.0,12.0,73,0.00,,,0.00,VWS V14.01,2013-01-10 08:27:00,
2013-01-10 02:30:00,34.4,26.7,30.33,SSW,197,5.0,12.0,73,0.00,,,0.00,VWS V14.01,2013-01-10 08:30:00,
2013-01-10 02:32:00,34.5,26.8,30.33,SE,141,5.0,11.0,73,0.00,,,0.00,VWS V14.01,2013-01-10 08:32:00,
2013-01-10 02:37:00,34.7,27.0,30.33,SSW,213,6.0,11.0,73,0.00,,,0.00,VWS V14.01,2013-01-10 08:37:00,
2013-01-10 02:42:00,34.8,26.7,30.33,South,188,6.0,11.0,72,0.00,,,0.00,VWS V14.01,2013-01-10 08:42:00,
2013-01-10 02:45:00,34.9,26.8,30.33,SSW,196,5.0,11.0,72,0.00,,,0.00,VWS V14.01,2013-01-10 08:45:00,
2013-01-10 02:47:00,35.0,26.9,30.33,South,184,8.0,9.0,72,0.00,,,0.00,VWS V14.01,2013-01-10 08:47:00,
2013-01-10 02:52:00,35.2,27.1,30.33,South,190,4.0,9.0,72,0.00,,,0.00,VWS V14.01,2013-01-10 08:52:00,
2013-01-10 02:58:00,35.2,26.8,30.33,SSW,197,5.0,10.0,71,0.00,,,0.00,VWS V14.01,2013-01-10 08:58:00,
2013-01-10 03:00:00,35.3,26.9,30.33,SW,216,5.0,10.0,71,0.00,,,0.00,VWS V14.01,2013-01-10 09:00:00,
2013-01-10 03:03:00,35.4,27.0,30.33,SSW,193,4.0,11.0,71,0.00,,,0.00,VWS V14.01,2013-01-10 09:03:00,
2013-01-10 03:08:00,35.6,26.8,30.32,SSW,200,5.0,11.0,70,0.00,,,0.00,VWS V14.01,2013-01-10 09:08:00,
2013-01-10 03:13:00,36.0,26.8,30.33,South,181,8.0,11.0,69,0.00,,,0.00,VWS V14.01,2013-01-10 09:13:00,
2013-01-10 03:15:00,36.0,26.8,30.33,SSW,193,9.0,13.0,69,0.00,,,0.00,VWS V14.01,2013-01-10 09:15:00,
2013-01-10 03:18:00,36.3,26.8,30.33,South,175,9.0,11.0,68,0.00,,,0.00,VWS V14.01,2013-01-10 09:18:00,
2013-01-10 03:23:00,36.6,27.0,30.32,South,169,7.0,11.0,68,0.00,,,0.00,VWS V14.01,2013-01-10 09:23:00,
2013-01-10 03:28:00,36.9,27.0,30.32,SSW,193,4.0,11.0,67,0.00,,,0.00,VWS V14.01,2013-01-10 09:28:00,
2013-01-10 03:30:00,36.9,27.0,30.32,SSW,193,4.0,11.0,67,0.00,,,0.00,VWS V14.01,2013-01-10 09:30:00,
2013-01-10 03:34:00,37.0,26.7,30.32,SW,225,1.0,10.0,66,0.00,,,0.00,VWS V14.01,2013-01-10 09:34:00,
2013-01-10 03:39:00,37.1,26.8,30.32,SW,232,6.0,10.0,66,0.00,,,0.00,VWS V14.01,2013-01-10 09:39:00,
2013-01-10 03:44:00,37.3,27.0,30.32,SW,223,7.0,7.0,66,0.00,,,0.00,VWS V14.01,2013-01-10 09:44:00,
2013-01-10 03:45:00,37.3,27.0,30.32,South,178,5.0,14.0,66,0.00,,,0.00,VWS V14.01,2013-01-10 09:45:00,
2013-01-10 03:49:00,37.5,26.8,30.32,SSW,206,4.0,10.0,65,0.00,,,0.00,VWS V14.01,2013-01-10 09:49:00,
2013-01-10 03:54:00,37.6,26.9,30.32,SE,142,7.0,12.0,65,0.00,,,0.00,VWS V14.01,2013-01-10 09:54:00,
2013-01-10 03:59:00,37.7,27.0,30.32,SSW,202,3.0,6.0,65,0.00,,,0.00,VWS V14.01,2013-01-10 09:59:00,
2013-01-10 04:00:00,37.7,27.0,30.32,WSW,246,6.0,12.0,65,0.00,,,0.00,VWS V14.01,2013-01-10 10:00:00,
2013-01-10 04:04:00,37.8,27.1,30.32,SSE,165,8.0,8.0,65,0.00,,,0.00,VWS V14.01,2013-01-10 10:04:00,
2013-01-10 04:09:00,37.8,27.1,30.32,WSW,238,6.0,9.0,65,0.00,,,0.00,VWS V14.01,2013-01-10 10:09:00,
2013-01-10 04:14:00,37.9,27.2,30.31,South,176,7.0,11.0,65,0.00,,,0.00,VWS V14.01,2013-01-10 10:14:00,
2013-01-10 04:15:00,37.9,27.2,30.31,WNW,284,2.0,14.0,65,0.00,,,0.00,VWS V14.01,2013-01-10 10:15:00,
2013-01-10 04:19:00,37.8,27.1,30.31,West,263,2.0,11.0,65,0.00,,,0.00,VWS V14.01,2013-01-10 10:19:00,
2013-01-10 04:25:00,37.8,27.1,30.31,SW,226,6.0,12.0,65,0.00,,,0.00,VWS V14.01,2013-01-10 10:25:00,
2013-01-10 04:30:00,37.8,27.1,30.31,WSW,239,7.0,7.0,65,0.00,,,0.00,VWS V14.01,2013-01-10 10:30:00,
2013-01-10 04:36:00,37.7,27.0,30.30,South,180,5.0,10.0,65,0.00,,,0.00,VWS V14.01,2013-01-10 10:36:00,
2013-01-10 04:41:00,37.8,27.1,30.30,SSW,196,11.0,13.0,65,0.00,,,0.00,VWS V14.01,2013-01-10 10:41:00,
2013-01-10 04:45:00,37.9,27.2,30.30,South,173,8.0,13.0,65,0.00,,,0.00,VWS V14.01,2013-01-10 10:45:00,
2013-01-10 04:46:00,37.9,27.2,30.30,South,180,4.0,10.0,65,0.00,,,0.00,VWS V14.01,2013-01-10 10:46:00,
2013-01-10 04:51:00,37.9,27.2,30.30,SSE,167,4.0,10.0,65,0.00,,,0.00,VWS V14.01,2013-01-10 10:51:00,
2013-01-10 04:56:00,37.9,26.8,30.30,SW,221,5.0,12.0,64,0.00,,,0.00,VWS V14.01,2013-01-10 10:56:00,
2013-01-10 05:00:00,37.9,26.8,30.30,SSW,203,5.0,12.0,64,0.00,,,0.00,VWS V14.01,2013-01-10 11:00:00,
2013-01-10 05:01:00,37.9,26.8,30.30,SSW,192,4.0,12.0,64,0.00,,,0.00,VWS V14.01,2013-01-10 11:01:00,
2013-01-10 05:06:00,38.0,26.9,30.30,SSW,199,12.0,13.0,64,0.00,,,0.00,VWS V14.01,2013-01-10 11:06:00,
2013-01-10 05:11:00,38.1,27.0,30.29,WSW,238,6.0,14.0,64,0.00,,,0.00,VWS V14.01,2013-01-10 11:11:00,
2013-01-10 05:15:00,38.0,26.9,30.29,SW,234,1.0,14.0,64,0.00,,,0.00,VWS V14.01,2013-01-10 11:15:00,
2013-01-10 05:17:00,38.0,26.9,30.30,North,5,5.0,10.0,64,0.00,,,0.00,VWS V14.01,2013-01-10 11:17:00,
2013-01-10 05:22:00,38.0,26.9,30.30,WSW,243,2.0,13.0,64,0.00,,,0.00,VWS V14.01,2013-01-10 11:22:00,
2013-01-10 05:27:00,38.0,26.9,30.29,South,179,7.0,13.0,64,0.00,,,0.00,VWS V14.01,2013-01-10 11:27:00,
2013-01-10 05:30:00,38.0,26.9,30.29,SSW,210,5.0,13.0,64,0.00,,,0.00,VWS V14.01,2013-01-10 11:30:00,
2013-01-10 05:32:00,37.9,26.8,30.29,SSW,201,5.0,14.0,64,0.00,,,0.00,VWS V14.01,2013-01-10 11:32:00,
2013-01-10 05:37:00,37.9,26.8,30.29,SE,128,5.0,14.0,64,0.00,,,0.00,VWS V14.01,2013-01-10 11:37:00,
2013-01-10 05:42:00,37.9,26.8,30.29,NNW,339,3.0,14.0,64,0.00,,,0.00,VWS V14.01,2013-01-10 11:42:00,
2013-01-10 05:45:00,37.8,26.7,30.29,West,281,1.0,14.0,64,0.00,,,0.00,VWS V14.01,2013-01-10 11:45:00,
2013-01-10 05:47:00,37.9,26.8,30.29,SW,227,1.0,7.0,64,0.00,,,0.00,VWS V14.01,2013-01-10 11:47:00,
2013-01-10 05:52:00,37.8,26.7,30.29,South,191,2.0,7.0,64,0.00,,,0.00,VWS V14.01,2013-01-10 11:52:00,
2013-01-10 05:57:00,37.8,26.7,30.29,WSW,242,1.0,9.0,64,0.00,,,0.00,VWS V14.01,2013-01-10 11:57:00,
2013-01-10 06:00:00,37.8,26.7,30.30,East,96,2.0,9.0,64,0.00,,,0.00,VWS V14.01,2013-01-10 12:00:00,
2013-01-10 06:02:00,37.8,26.7,30.30,SSW,213,0.0,7.0,64,0.00,,,0.00,VWS V14.01,2013-01-10 12:02:00,
2013-01-10 06:07:00,37.8,26.7,30.30,SW,234,3.0,8.0,64,0.00,,,0.00,VWS V14.01,2013-01-10 12:07:00,
2013-01-10 06:13:00,37.9,26.5,30.30,West,279,1.0,8.0,63,0.00,,,0.00,VWS V14.01,2013-01-10 12:13:00,
2013-01-10 06:15:00,37.9,26.8,30.30,West,269,2.0,8.0,64,0.00,,,0.00,VWS V14.01,2013-01-10 12:15:00,
2013-01-10 06:18:00,37.8,26.4,30.30,WSW,244,0.0,8.0,63,0.00,,,0.00,VWS V14.01,2013-01-10 12:18:00,
2013-01-10 06:23:00,37.7,26.3,30.30,SSW,211,6.0,10.0,63,0.00,,,0.00,VWS V14.01,2013-01-10 12:23:00,
2013-01-10 06:28:00,37.7,26.3,30.30,WSW,256,0.0,10.0,63,0.00,,,0.00,VWS V14.01,2013-01-10 12:28:00,
2013-01-10 06:30:00,37.7,26.2,30.30,South,174,4.0,10.0,63,0.00,,,0.00,VWS V14.01,2013-01-10 12:30:00,
2013-01-10 06:33:00,37.6,26.2,30.30,SSW,200,1.0,7.0,63,0.00,,,0.00,VWS V14.01,2013-01-10 12:33:00,
2013-01-10 06:38:00,37.7,25.9,30.29,South,182,6.0,10.0,62,0.00,,,0.00,VWS V14.01,2013-01-10 12:38:00,
2013-01-10 06:43:00,37.9,26.1,30.29,South,188,3.0,10.0,62,0.00,,,0.00,VWS V14.01,2013-01-10 12:43:00,
2013-01-10 06:45:00,38.0,26.1,30.29,South,180,11.0,11.0,62,0.00,,,0.00,VWS V14.01,2013-01-10 12:45:00,
2013-01-10 06:48:00,38.2,26.0,30.29,South,188,9.0,11.0,61,0.00,,,0.00,VWS V14.01,2013-01-10 12:48:00,
2013-01-10 06:53:00,38.0,25.8,30.29,SSE,148,5.0,12.0,61,0.00,,,0.00,VWS V14.01,2013-01-10 12:53:00,
2013-01-10 06:58:00,36.4,25.4,30.29,SSE,161,4.0,12.0,64,0.00,,,0.00,VWS V14.01,2013-01-10 12:58:00,
2013-01-10 07:00:00,36.4,25.4,30.29,SSE,161,4.0,12.0,64,0.00,,,0.00,VWS V14.01,2013-01-10 13:00:00,
2013-01-10 07:04:00,35.6,25.4,30.29,South,189,5.0,6.0,66,0.00,,,0.00,VWS V14.01,2013-01-10 13:04:00,
2013-01-10 07:09:00,35.2,25.4,30.29,South,189,6.0,9.0,67,0.00,,,0.00,VWS V14.01,2013-01-10 13:09:00,
2013-01-10 07:14:00,35.2,25.4,30.28,South,181,8.0,8.0,67,0.00,,,0.00,VWS V14.01,2013-01-10 13:14:00,
2013-01-10 07:15:00,35.2,25.4,30.29,South,184,4.0,10.0,67,0.00,,,0.00,VWS V14.01,2013-01-10 13:15:00,
2013-01-10 07:19:00,35.2,25.4,30.28,South,183,5.0,9.0,67,0.00,,,0.00,VWS V14.01,2013-01-10 13:19:00,
2013-01-10 07:24:00,35.4,25.5,30.28,SSW,192,4.0,11.0,67,0.00,,,0.00,VWS V14.01,2013-01-10 13:24:00,
2013-01-10 07:29:00,35.5,25.6,30.28,South,169,5.0,12.0,67,0.00,,,0.00,VWS V14.01,2013-01-10 13:29:00,
2013-01-10 07:30:00,35.4,25.5,30.28,SSW,212,12.0,12.0,67,0.00,,,0.00,VWS V14.01,2013-01-10 13:30:00,
2013-01-10 07:34:00,35.6,25.7,30.28,SW,229,6.0,14.0,67,0.00,,,0.00,VWS V14.01,2013-01-10 13:34:00,
2013-01-10 07:39:00,35.6,26.1,30.28,South,183,7.0,14.0,68,0.00,,,0.00,VWS V14.01,2013-01-10 13:39:00,
2013-01-10 07:44:00,35.6,25.7,30.28,SSW,198,7.0,8.0,67,0.00,,,0.00,VWS V14.01,2013-01-10 13:44:00,
2013-01-10 07:45:00,35.6,25.7,30.28,SW,217,8.0,14.0,67,0.00,,,0.00,VWS V14.01,2013-01-10 13:45:00,
2013-01-10 07:49:00,35.5,26.0,30.28,SSW,196,9.0,12.0,68,0.00,,,0.00,VWS V14.01,2013-01-10 13:49:00,
2013-01-10 07:54:00,35.6,26.1,30.27,SSW,198,4.0,16.0,68,0.00,,,0.00,VWS V14.01,2013-01-10 13:54:00,
2013-01-10 08:00:00,35.5,26.0,30.27,South,169,13.0,13.0,68,0.00,,,0.00,VWS V14.01,2013-01-10 14:00:00,
2013-01-10 08:05:00,35.4,26.3,30.27,SW,215,6.0,14.0,69,0.00,,,0.00,VWS V14.01,2013-01-10 14:05:00,
2013-01-10 08:10:00,35.2,26.1,30.27,SSW,198,5.0,14.0,69,0.00,,,0.00,VWS V14.01,2013-01-10 14:10:00,
2013-01-10 08:15:00,35.2,26.1,30.27,South,189,6.0,10.0,69,0.00,,,0.00,VWS V14.01,2013-01-10 14:15:00,
2013-01-10 08:20:00,35.2,26.4,30.27,South,189,10.0,12.0,70,0.00,,,0.00,VWS V14.01,2013-01-10 14:20:00,
2013-01-10 08:25:00,35.2,26.4,30.27,SW,217,4.0,14.0,70,0.00,,,0.00,VWS V14.01,2013-01-10 14:25:00,
2013-01-10 08:30:00,35.3,26.5,30.27,SW,231,8.0,11.0,70,0.00,,,0.00,VWS V14.01,2013-01-10 14:30:00,
2013-01-10 08:35:00,35.5,26.4,30.27,West,272,5.0,16.0,69,0.00,,,0.00,VWS V14.01,2013-01-10 14:35:00,
2013-01-10 08:40:00,35.5,26.4,30.27,SSW,192,5.0,16.0,69,0.00,,,0.00,VWS V14.01,2013-01-10 14:40:00,
2013-01-10 08:45:00,35.6,26.5,30.27,South,174,6.0,16.0,69,0.00,,,0.00,VWS V14.01,2013-01-10 14:45:00,
2013-01-10 08:46:00,35.6,26.5,30.27,WSW,240,9.0,11.0,69,0.00,,,0.00,VWS V14.01,2013-01-10 14:46:00,
2013-01-10 08:51:00,35.7,26.5,30.26,South,191,7.0,20.0,69,0.00,,,0.00,VWS V14.01,2013-01-10 14:51:00,
2013-01-10 08:56:00,35.9,26.4,30.26,SSE,166,6.0,20.0,68,0.00,,,0.00,VWS V14.01,2013-01-10 14:56:00,
2013-01-10 09:00:00,35.9,26.4,30.26,SSW,202,7.0,20.0,68,0.00,,,0.00,VWS V14.01,2013-01-10 15:00:00,
2013-01-10 09:01:00,36.0,26.5,30.26,South,188,8.0,11.0,68,0.00,,,0.00,VWS V14.01,2013-01-10 15:01:00,
2013-01-10 09:06:00,36.0,26.1,30.25,SW,215,10.0,12.0,67,0.00,,,0.00,VWS V14.01,2013-01-10 15:06:00,
2013-01-10 09:11:00,36.0,26.1,30.26,South,188,6.0,12.0,67,0.00,,,0.00,VWS V14.01,2013-01-10 15:11:00,
2013-01-10 09:15:00,36.1,26.2,30.26,SW,228,8.0,12.0,67,0.00,,,0.00,VWS V14.01,2013-01-10 15:15:00,
2013-01-10 09:16:00,36.2,26.3,30.26,South,189,8.0,9.0,67,0.00,,,0.00,VWS V14.01,2013-01-10 15:16:00,
2013-01-10 09:21:00,36.4,26.1,30.25,South,189,4.0,9.0,66,0.00,,,0.00,VWS V14.01,2013-01-10 15:21:00,
2013-01-10 09:26:00,36.6,26.3,30.26,SSW,210,1.0,9.0,66,0.00,,,0.00,VWS V14.01,2013-01-10 15:26:00,
2013-01-10 09:30:00,36.7,26.1,30.26,South,171,6.0,11.0,65,0.00,,,0.00,VWS V14.01,2013-01-10 15:30:00,
2013-01-10 09:31:00,36.9,26.2,30.26,SSW,198,3.0,8.0,65,0.00,,,0.00,VWS V14.01,2013-01-10 15:31:00,
2013-01-10 09:36:00,37.2,25.8,30.26,SSW,208,4.0,10.0,63,0.00,,,0.00,VWS V14.01,2013-01-10 15:36:00,
2013-01-10 09:42:00,37.5,26.1,30.26,SSW,201,6.0,11.0,63,0.00,,,0.00,VWS V14.01,2013-01-10 15:42:00,
2013-01-10 09:45:00,37.6,25.8,30.25,SSE,152,8.0,11.0,62,0.00,,,0.00,VWS V14.01,2013-01-10 15:45:00,
2013-01-10 09:47:00,37.9,25.7,30.25,South,169,6.0,11.0,61,0.00,,,0.00,VWS V14.01,2013-01-10 15:47:00,
2013-01-10 09:52:00,38.1,25.1,30.25,South,188,8.0,14.0,59,0.00,,,0.00,VWS V14.01,2013-01-10 15:52:00,
2013-01-10 09:57:00,38.1,25.1,30.25,SSE,150,7.0,15.0,59,0.00,,,0.00,VWS V14.01,2013-01-10 15:57:00,
2013-01-10 10:00:00,38.1,24.6,30.25,SSE,162,6.0,17.0,58,0.00,,,0.00,VWS V14.01,2013-01-10 16:00:00,
2013-01-10 10:02:00,38.1,24.6,30.24,SSW,204,8.0,15.0,58,0.00,,,0.00,VWS V14.01,2013-01-10 16:02:00,
2013-01-10 10:07:00,38.1,24.6,30.24,SSW,194,9.0,15.0,58,0.00,,,0.00,VWS V14.01,2013-01-10 16:07:00,
2013-01-10 10:12:00,38.3,24.8,30.24,SSW,208,6.0,15.0,58,0.00,,,0.00,VWS V14.01,2013-01-10 16:12:00,
2013-01-10 10:15:00,38.4,24.9,30.24,South,173,5.0,15.0,58,0.00,,,0.00,VWS V14.01,2013-01-10 16:15:00,
2013-01-10 10:17:00,38.5,25.0,30.24,South,191,3.0,6.0,58,0.00,,,0.00,VWS V14.01,2013-01-10 16:17:00,
2013-01-10 10:22:00,38.5,25.0,30.24,South,181,6.0,12.0,58,0.00,,,0.00,VWS V14.01,2013-01-10 16:22:00,
2013-01-10 10:27:00,38.6,25.1,30.24,SSE,167,5.0,12.0,58,0.00,,,0.00,VWS V14.01,2013-01-10 16:27:00,
2013-01-10 10:30:00,38.7,25.2,30.24,South,189,10.0,12.0,58,0.00,,,0.00,VWS V14.01,2013-01-10 16:30:00,
2013-01-10 10:33:00,38.8,24.9,30.23,SSE,161,6.0,11.0,57,0.00,,,0.00,VWS V14.01,2013-01-10 16:33:00,
2013-01-10 10:38:00,39.1,25.6,30.23,SW,235,4.0,11.0,58,0.00,,,0.00,VWS V14.01,2013-01-10 16:38:00,
2013-01-10 10:43:00,39.5,25.5,30.23,South,191,8.0,11.0,57,0.00,,,0.00,VWS V14.01,2013-01-10 16:43:00,
2013-01-10 10:45:00,39.5,25.1,30.23,South,179,7.0,11.0,56,0.00,,,0.00,VWS V14.01,2013-01-10 16:45:00,
2013-01-10 10:48:00,39.7,25.3,30.23,SSE,163,6.0,14.0,56,0.00,,,0.00,VWS V14.01,2013-01-10 16:48:00,
2013-01-10 10:53:00,39.8,25.4,30.23,SSE,157,7.0,14.0,56,0.00,,,0.00,VWS V14.01,2013-01-10 16:53:00,
2013-01-10 10:58:00,39.8,25.8,30.22,SSE,160,4.0,14.0,57,0.00,,,0.00,VWS V14.01,2013-01-10 16:58:00,
2013-01-10 11:00:00,39.8,25.8,30.22,SSE,158,6.0,14.0,57,0.00,,,0.00,VWS V14.01,2013-01-10 17:00:00,
2013-01-10 11:03:00,39.8,25.4,30.22,SSE,160,2.0,9.0,56,0.00,,,0.00,VWS V14.01,2013-01-10 17:03:00,
2013-01-10 11:08:00,39.8,25.4,30.21,South,171,5.0,10.0,56,0.00,,,0.00,VWS V14.01,2013-01-10 17:08:00,
2013-01-10 11:14:00,40.0,25.6,30.21,SSE,156,1.0,2.0,56,0.00,,,0.00,VWS V14.01,2013-01-10 17:14:00,
2013-01-10 11:15:00,40.0,25.6,30.21,SSE,157,2.0,10.0,56,0.00,,,0.00,VWS V14.01,2013-01-10 17:15:00,
2013-01-10 11:19:00,40.1,26.1,30.21,SSE,163,6.0,8.0,57,0.00,,,0.00,VWS V14.01,2013-01-10 17:19:00,
2013-01-10 11:24:00,40.1,25.7,30.20,SSE,165,4.0,10.0,56,0.00,,,0.00,VWS V14.01,2013-01-10 17:24:00,
2013-01-10 11:29:00,40.2,25.8,30.20,South,178,4.0,7.0,56,0.00,,,0.00,VWS V14.01,2013-01-10 17:29:00,
2013-01-10 11:30:00,40.2,25.8,30.20,South,178,7.0,10.0,56,0.00,,,0.00,VWS V14.01,2013-01-10 17:30:00,
2013-01-10 11:34:00,40.3,25.4,30.20,SSE,166,4.0,12.0,55,0.00,,,0.00,VWS V14.01,2013-01-10 17:34:00,
2013-01-10 11:39:00,40.4,25.5,30.19,SSE,167,4.0,14.0,55,0.00,,,0.00,VWS V14.01,2013-01-10 17:39:00,
2013-01-10 11:44:00,40.6,25.7,30.18,SE,142,5.0,9.0,55,0.00,,,0.00,VWS V14.01,2013-01-10 17:44:00,
2013-01-10 11:45:00,40.6,25.7,30.18,South,170,2.0,14.0,55,0.00,,,0.00,VWS V14.01,2013-01-10 17:45:00,
2013-01-10 11:49:00,40.6,25.3,30.18,South,181,5.0,9.0,54,0.00,,,0.00,VWS V14.01,2013-01-10 17:49:00,
2013-01-10 11:54:00,40.4,25.1,30.18,SSE,156,6.0,12.0,54,0.00,,,0.00,VWS V14.01,2013-01-10 17:54:00,
2013-01-10 12:00:00,40.4,25.1,30.17,South,187,7.0,7.0,54,0.00,,,0.00,VWS V14.01,2013-01-10 18:00:00,
2013-01-10 12:05:00,40.4,24.6,30.17,South,182,9.0,10.0,53,0.00,,,0.00,VWS V14.01,2013-01-10 18:05:00,
2013-01-10 12:10:00,40.2,24.5,30.16,South,172,4.0,12.0,53,0.00,,,0.00,VWS V14.01,2013-01-10 18:10:00,
2013-01-10 12:15:00,40.2,24.5,30.16,South,180,6.0,9.0,53,0.00,,,0.00,VWS V14.01,2013-01-10 18:15:00,
2013-01-10 12:20:00,40.3,24.5,30.15,South,172,5.0,11.0,53,0.00,,,0.00,VWS V14.01,2013-01-10 18:20:00,
2013-01-10 12:25:00,40.5,24.7,30.14,SSE,148,5.0,14.0,53,0.00,,,0.00,VWS V14.01,2013-01-10 18:25:00,
2013-01-10 12:30:00,40.7,24.5,30.14,South,177,6.0,12.0,52,0.00,,,0.00,VWS V14.01,2013-01-10 18:30:00,
2013-01-10 12:35:00,40.7,24.9,30.14,SE,141,8.0,12.0,53,0.00,,,0.00,VWS V14.01,2013-01-10 18:35:00,
2013-01-10 12:40:00,40.4,25.5,30.13,SE,138,7.0,12.0,55,0.00,,,0.00,VWS V14.01,2013-01-10 18:40:00,
2013-01-10 12:45:00,40.3,24.5,30.13,SSE,150,7.0,8.0,53,0.00,,,0.00,VWS V14.01,2013-01-10 18:45:00,
2013-01-10 12:50:00,40.3,24.5,30.13,SE,139,7.0,8.0,53,0.00,,,0.00,VWS V14.01,2013-01-10 18:50:00,
2013-01-10 12:56:00,40.4,25.1,30.12,SSE,148,6.0,9.0,54,0.00,,,0.00,VWS V14.01,2013-01-10 18:56:00,
2013-01-10 13:00:00,40.4,24.6,30.11,SE,136,8.0,9.0,53,0.00,,,0.00,VWS V14.01,2013-01-10 19:00:00,
2013-01-10 13:01:00,40.3,25.0,30.11,SE,134,6.0,11.0,54,0.00,,,0.00,VWS V14.01,2013-01-10 19:01:00,
2013-01-10 13:06:00,40.2,24.9,30.11,South,169,4.0,11.0,54,0.00,,,0.00,VWS V14.01,2013-01-10 19:06:00,
2013-01-10 13:11:00,40.1,24.8,30.10,SE,135,8.0,11.0,54,0.00,,,0.00,VWS V14.01,2013-01-10 19:11:00,
2013-01-10 13:15:00,40.1,24.8,30.10,SE,146,7.0,11.0,54,0.00,,,0.00,VWS V14.01,2013-01-10 19:15:00,
2013-01-10 13:16:00,40.1,24.8,30.09,SE,143,6.0,8.0,54,0.00,,,0.00,VWS V14.01,2013-01-10 19:16:00,
2013-01-10 13:21:00,40.2,24.9,30.08,SE,138,9.0,11.0,54,0.00,,,0.00,VWS V14.01,2013-01-10 19:21:00,
2013-01-10 13:26:00,40.2,24.9,30.08,SE,133,11.0,12.0,54,0.00,,,0.00,VWS V14.01,2013-01-10 19:26:00,
2013-01-10 13:30:00,40.2,24.9,30.08,SE,134,7.0,12.0,54,0.00,,,0.00,VWS V14.01,2013-01-10 19:30:00,
2013-01-10 13:31:00,40.2,24.9,30.08,SE,146,5.0,11.0,54,0.00,,,0.00,VWS V14.01,2013-01-10 19:31:00,
2013-01-10 13:36:00,40.3,24.1,30.08,SSE,149,7.0,14.0,52,0.00,,,0.00,VWS V14.01,2013-01-10 19:36:00,
2013-01-10 13:42:00,40.3,25.0,30.08,SE,130,11.0,15.0,54,0.00,,,0.00,VWS V14.01,2013-01-10 19:42:00,
2013-01-10 13:45:00,40.2,24.9,30.08,SE,128,11.0,15.0,54,0.00,,,0.00,VWS V14.01,2013-01-10 19:45:00,
2013-01-10 13:47:00,40.2,25.3,30.08,SE,138,10.0,12.0,55,0.00,,,0.00,VWS V14.01,2013-01-10 19:47:00,
2013-01-10 13:52:00,40.0,25.6,30.07,SE,128,8.0,13.0,56,0.00,,,0.00,VWS V14.01,2013-01-10 19:52:00,
2013-01-10 13:57:00,39.7,25.7,30.07,SE,124,12.0,14.0,57,0.00,,,0.00,VWS V14.01,2013-01-10 19:57:00,
2013-01-10 14:00:00,39.6,25.6,30.07,SE,131,11.0,14.0,57,0.00,,,0.00,VWS V14.01,2013-01-10 20:00:00,
2013-01-10 14:02:00,39.5,25.5,30.07,SE,135,7.0,16.0,57,0.00,,,0.00,VWS V14.01,2013-01-10 20:02:00,
2013-01-10 14:08:00,39.0,25.9,30.07,SE,132,14.0,16.0,59,0.00,,,0.00,VWS V14.01,2013-01-10 20:08:00,
2013-01-10 14:13:00,38.9,25.8,30.07,SE,140,9.0,16.0,59,0.00,,,0.00,VWS V14.01,2013-01-10 20:13:00,
2013-01-10 14:15:00,38.9,25.8,30.07,SE,136,9.0,16.0,59,0.00,,,0.00,VWS V14.01,2013-01-10 20:15:00,
2013-01-10 14:18:00,38.6,25.9,30.07,SE,126,9.0,12.0,60,0.00,,,0.00,VWS V14.01,2013-01-10 20:18:00,
2013-01-10 14:23:00,38.6,25.5,30.08,SE,137,6.0,14.0,59,0.00,,,0.00,VWS V14.01,2013-01-10 20:23:00,
2013-01-10 14:28:00,38.5,25.4,30.07,SE,140,6.0,16.0,59,0.00,,,0.00,VWS V14.01,2013-01-10 20:28:00,
2013-01-10 14:30:00,38.6,25.5,30.07,SSE,148,9.0,16.0,59,0.00,,,0.00,VWS V14.01,2013-01-10 20:30:00,
2013-01-10 14:33:00,38.4,25.3,30.07,SE,138,7.0,12.0,59,0.00,,,0.00,VWS V14.01,2013-01-10 20:33:00,
2013-01-10 14:39:00,38.3,25.6,30.07,SE,132,7.0,12.0,60,0.00,,,0.00,VWS V14.01,2013-01-10 20:39:00,
2013-01-10 14:44:00,38.2,25.5,30.07,SE,128,7.0,11.0,60,0.00,,,0.00,VWS V14.01,2013-01-10 20:44:00,
2013-01-10 14:45:00,38.2,26.0,30.07,SE,130,11.0,14.0,61,0.00,,,0.00,VWS V14.01,2013-01-10 20:45:00,
2013-01-10 14:49:00,38.2,25.1,30.07,SE,124,11.0,13.0,59,0.00,,,0.00,VWS V14.01,2013-01-10 20:49:00,
2013-01-10 14:54:00,38.3,25.2,30.06,SE,128,8.0,13.0,59,0.00,,,0.00,VWS V14.01,2013-01-10 20:54:00,
2013-01-10 15:00:00,38.4,25.3,30.05,SSE,148,2.0,9.0,59,0.00,,,0.00,VWS V14.01,2013-01-10 21:00:00,
2013-01-10 15:05:00,38.5,25.4,30.05,ESE,117,7.0,14.0,59,0.00,,,0.00,VWS V14.01,2013-01-10 21:05:00,
2013-01-10 15:10:00,38.6,25.1,30.05,SE,141,9.0,14.0,58,0.00,,,0.00,VWS V14.01,2013-01-10 21:10:00,
2013-01-10 15:15:00,38.8,24.5,30.05,SE,132,11.0,11.0,56,0.00,,,0.00,VWS V14.01,2013-01-10 21:15:00,
2013-01-10 15:20:00,39.0,24.2,30.04,SSE,162,5.0,13.0,55,0.00,,,0.00,VWS V14.01,2013-01-10 21:20:00,
2013-01-10 15:25:00,39.1,23.9,30.05,SE,140,8.0,15.0,54,0.00,,,0.00,VWS V14.01,2013-01-10 21:25:00,
2013-01-10 15:30:00,39.1,24.3,30.04,SE,141,7.0,11.0,55,0.00,,,0.00,VWS V14.01,2013-01-10 21:30:00,
2013-01-10 15:35:00,39.1,23.9,30.03,SE,130,13.0,15.0,54,0.00,,,0.00,VWS V14.01,2013-01-10 21:35:00,
2013-01-10 15:41:00,39.2,23.5,30.03,SE,138,8.0,15.0,53,0.00,,,0.00,VWS V14.01,2013-01-10 21:41:00,
2013-01-10 15:45:00,39.2,24.0,30.03,SE,141,8.0,15.0,54,0.00,,,0.00,VWS V14.01,2013-01-10 21:45:00,
2013-01-10 15:46:00,39.2,23.5,30.03,SE,135,7.0,9.0,53,0.00,,,0.00,VWS V14.01,2013-01-10 21:46:00,
2013-01-10 15:51:00,39.3,24.1,30.03,SE,136,9.0,11.0,54,0.00,,,0.00,VWS V14.01,2013-01-10 21:51:00,
2013-01-10 15:56:00,39.2,24.0,30.03,SE,128,8.0,13.0,54,0.00,,,0.00,VWS V14.01,2013-01-10 21:56:00,
2013-01-10 16:00:00,39.1,23.9,30.03,SE,130,12.0,13.0,54,0.00,,,0.00,VWS V14.01,2013-01-10 22:00:00,
2013-01-10 16:01:00,39.1,23.9,30.03,SE,128,9.0,13.0,54,0.00,,,0.00,VWS V14.01,2013-01-10 22:01:00,
2013-01-10 16:06:00,38.8,24.9,30.02,ESE,114,8.0,13.0,57,0.00,,,0.00,VWS V14.01,2013-01-10 22:06:00,
2013-01-10 16:11:00,38.2,25.5,30.02,ESE,121,9.0,16.0,60,0.00,,,0.00,VWS V14.01,2013-01-10 22:11:00,
2013-01-10 16:15:00,37.9,25.7,30.02,SE,133,12.0,16.0,61,0.00,,,0.00,VWS V14.01,2013-01-10 22:15:00,
2013-01-10 16:16:00,37.5,26.1,30.02,SE,128,9.0,12.0,63,0.00,,,0.00,VWS V14.01,2013-01-10 22:16:00,
2013-01-10 16:21:00,37.0,26.3,30.02,SE,130,8.0,13.0,65,0.00,,,0.00,VWS V14.01,2013-01-10 22:21:00,
2013-01-10 16:27:00,36.6,26.7,30.01,SE,130,7.0,13.0,67,0.00,,,0.00,VWS V14.01,2013-01-10 22:27:00,
2013-01-10 16:30:00,36.4,26.9,30.01,SE,130,9.0,13.0,68,0.01,,,0.01,VWS V14.01,2013-01-10 22:30:00,
2013-01-10 16:32:00,36.2,27.4,30.01,SE,136,8.0,14.0,70,0.01,,,0.01,VWS V14.01,2013-01-10 22:32:00,
2013-01-10 16:37:00,35.8,28.0,30.00,SE,130,8.0,14.0,73,0.02,,,0.02,VWS V14.01,2013-01-10 22:37:00,
2013-01-10 16:42:00,35.4,28.0,30.00,SE,127,7.0,14.0,74,0.02,,,0.02,VWS V14.01,2013-01-10 22:42:00,
2013-01-10 16:45:00,35.3,28.2,30.00,ESE,121,6.0,14.0,75,0.02,,,0.02,VWS V14.01,2013-01-10 22:45:00,
2013-01-10 16:47:00,35.2,28.1,30.00,SE,130,7.0,12.0,75,0.02,,,0.02,VWS V14.01,2013-01-10 22:47:00,
2013-01-10 16:52:00,35.0,28.2,29.99,ESE,115,9.0,12.0,76,0.02,,,0.02,VWS V14.01,2013-01-10 22:52:00,
2013-01-10 16:57:00,34.9,28.4,29.98,ESE,117,9.0,12.0,77,0.02,,,0.02,VWS V14.01,2013-01-10 22:57:00,
2013-01-10 17:00:00,34.9,28.4,29.98,East,96,8.0,12.0,77,0.02,,,0.02,VWS V14.01,2013-01-10 23:00:00,
2013-01-10 17:02:00,34.8,28.6,29.98,SE,130,12.0,12.0,78,0.02,,,0.02,VWS V14.01,2013-01-10 23:02:00,
2013-01-10 17:07:00,34.7,28.5,29.97,SE,126,11.0,13.0,78,0.03,,,0.03,VWS V14.01,2013-01-10 23:07:00,
2013-01-10 17:12:00,34.6,28.8,29.97,SE,131,9.0,13.0,79,0.03,,,0.03,VWS V14.01,2013-01-10 23:12:00,
2013-01-10 17:15:00,34.6,28.8,29.97,SE,128,9.0,13.0,79,0.03,,,0.03,VWS V14.01,2013-01-10 23:15:00,
2013-01-10 17:18:00,34.6,29.1,29.97,SE,130,8.0,11.0,80,0.03,,,0.03,VWS V14.01,2013-01-10 23:18:00,
2013-01-10 17:23:00,34.5,29.0,29.96,ESE,109,8.0,12.0,80,0.03,,,0.03,VWS V14.01,2013-01-10 23:23:00,
2013-01-10 17:28:00,34.3,29.4,29.97,SE,132,9.0,12.0,82,0.04,,,0.04,VWS V14.01,2013-01-10 23:28:00,
2013-01-10 17:30:00,34.3,29.4,29.97,ESE,116,11.0,12.0,82,0.04,,,0.04,VWS V14.01,2013-01-10 23:30:00,
2013-01-10 17:33:00,34.3,29.4,29.97,ESE,121,8.0,11.0,82,0.04,,,0.05,VWS V14.01,2013-01-10 23:33:00,
2013-01-10 17:38:00,34.2,29.6,29.97,SE,127,8.0,14.0,83,0.04,,,0.05,VWS V14.01,2013-01-10 23:38:00,
2013-01-10 17:43:00,34.1,29.8,29.97,SE,134,11.0,14.0,84,0.05,,,0.06,VWS V14.01,2013-01-10 23:43:00,
2013-01-10 17:45:00,34.1,29.8,29.97,SE,127,11.0,14.0,84,0.05,,,0.06,VWS V14.01,2013-01-10 23:45:00,
2013-01-10 17:48:00,34.1,30.1,29.97,SE,133,9.0,12.0,85,0.04,,,0.06,VWS V14.01,2013-01-10 23:48:00,
2013-01-10 17:53:00,34.0,30.0,29.96,SE,134,11.0,17.0,85,0.05,,,0.07,VWS V14.01,2013-01-10 23:53:00,
2013-01-10 17:58:00,34.1,30.1,29.95,SE,126,8.0,17.0,85,0.05,,,0.07,VWS V14.01,2013-01-10 23:58:00,
2013-01-10 18:00:00,34.1,30.1,29.95,SE,126,8.0,17.0,85,0.05,,,0.07,VWS V14.01,2013-01-11 00:00:00,
2013-01-10 18:04:00,33.9,30.5,29.94,SE,130,15.0,15.0,87,0.06,,,0.08,VWS V14.01,2013-01-11 00:04:00,
2013-01-10 18:09:00,33.7,30.2,29.93,ESE,111,13.0,17.0,87,0.07,,,0.09,VWS V14.01,2013-01-11 00:09:00,
2013-01-10 18:14:00,33.6,30.4,29.93,SE,130,13.0,13.0,88,0.08,,,0.11,VWS V14.01,2013-01-11 00:14:00,
2013-01-10 18:15:00,33.7,30.5,29.93,SE,130,13.0,17.0,88,0.08,,,0.10,VWS V14.01,2013-01-11 00:15:00,
2013-01-10 18:19:00,33.5,30.3,29.93,SE,140,12.0,16.0,88,0.08,,,0.11,VWS V14.01,2013-01-11 00:19:00,
2013-01-10 18:24:00,33.6,30.4,29.93,SE,135,8.0,16.0,88,0.09,,,0.12,VWS V14.01,2013-01-11 00:24:00,
2013-01-10 18:29:00,33.7,30.5,29.92,SE,132,9.0,13.0,88,0.08,,,0.12,VWS V14.01,2013-01-11 00:29:00,
2013-01-10 18:30:00,33.6,30.4,29.93,SE,142,11.0,17.0,88,0.09,,,0.12,VWS V14.01,2013-01-11 00:30:00,
2013-01-10 18:34:00,33.6,30.4,29.92,SE,129,17.0,21.0,88,0.08,,,0.12,VWS V14.01,2013-01-11 00:34:00,
2013-01-10 18:40:00,33.6,30.7,29.92,SE,127,18.0,21.0,89,0.09,,,0.13,VWS V14.01,2013-01-11 00:40:00,
2013-01-10 18:45:00,33.5,30.6,29.92,ESE,119,12.0,13.0,89,0.07,,,0.13,VWS V14.01,2013-01-11 00:45:00,
2013-01-10 18:50:00,33.4,30.8,29.91,SE,129,9.0,18.0,90,0.07,,,0.13,VWS V14.01,2013-01-11 00:50:00,
2013-01-10 18:55:00,33.4,30.8,29.91,SE,134,15.0,18.0,90,0.07,,,0.13,VWS V14.01,2013-01-11 00:55:00,
2013-01-10 19:00:00,33.4,30.8,29.91,SE,130,11.0,13.0,90,0.07,,,0.14,VWS V14.01,2013-01-11 01:00:00,
2013-01-10 19:05:00,33.4,30.8,29.91,SE,132,13.0,16.0,90,0.07,,,0.14,VWS V14.01,2013-01-11 01:05:00,
2013-01-10 19:11:00,33.4,30.8,29.90,ESE,123,11.0,16.0,90,0.07,,,0.14,VWS V14.01,2013-01-11 01:11:00,
2013-01-10 19:15:00,33.4,30.8,29.90,ESE,123,9.0,16.0,90,0.07,,,0.14,VWS V14.01,2013-01-11 01:15:00,
2013-01-10 19:16:00,33.3,30.7,29.90,SE,144,8.0,13.0,90,0.04,,,0.14,VWS V14.01,2013-01-11 01:16:00,
2013-01-10 19:21:00,33.3,31.0,29.89,SE,129,13.0,15.0,91,0.04,,,0.14,VWS V14.01,2013-01-11 01:21:00,
2013-01-10 19:26:00,33.4,30.8,29.89,SE,130,11.0,15.0,90,0.04,,,0.14,VWS V14.01,2013-01-11 01:26:00,
2013-01-10 19:30:00,33.3,31.0,29.89,SE,130,6.0,15.0,91,0.05,,,0.15,VWS V14.01,2013-01-11 01:30:00,
2013-01-10 19:31:00,33.3,31.0,29.88,SE,130,9.0,11.0,91,0.03,,,0.15,VWS V14.01,2013-01-11 01:31:00,
2013-01-10 19:36:00,33.3,31.0,29.88,SE,130,11.0,14.0,91,0.03,,,0.15,VWS V14.01,2013-01-11 01:36:00,
2013-01-10 19:41:00,33.3,31.0,29.87,SE,130,12.0,15.0,91,0.03,,,0.15,VWS V14.01,2013-01-11 01:41:00,
2013-01-10 19:45:00,33.3,31.0,29.86,SE,130,13.0,15.0,91,0.03,,,0.15,VWS V14.01,2013-01-11 01:45:00,
2013-01-10 19:46:00,33.3,31.0,29.86,SE,130,12.0,15.0,91,0.02,,,0.15,VWS V14.01,2013-01-11 01:46:00,
2013-01-10 19:52:00,33.3,31.0,29.86,SE,130,11.0,15.0,91,0.03,,,0.16,VWS V14.01,2013-01-11 01:52:00,
2013-01-10 19:57:00,33.3,31.2,29.86,SE,130,8.0,15.0,92,0.04,,,0.17,VWS V14.01,2013-01-11 01:57:00,
2013-01-10 20:00:00,33.3,31.2,29.86,SE,130,14.0,15.0,92,0.04,,,0.17,VWS V14.01,2013-01-11 02:00:00,
2013-01-10 20:02:00,33.3,31.2,29.86,SE,130,6.0,14.0,92,0.05,,,0.18,VWS V14.01,2013-01-11 02:02:00,
2013-01-10 20:07:00,33.4,31.3,29.87,SE,130,6.0,14.0,92,0.06,,,0.19,VWS V14.01,2013-01-11 02:07:00,
2013-01-10 20:12:00,33.4,31.3,29.87,SE,130,5.0,14.0,92,0.07,,,0.20,VWS V14.01,2013-01-11 02:12:00,
2013-01-10 20:15:00,33.4,31.6,29.87,SE,130,7.0,14.0,93,0.07,,,0.20,VWS V14.01,2013-01-11 02:15:00,
2013-01-10 20:17:00,33.4,31.6,29.87,SE,130,2.0,9.0,93,0.06,,,0.20,VWS V14.01,2013-01-11 02:17:00,
2013-01-10 20:22:00,33.4,31.6,29.86,SE,130,6.0,9.0,93,0.07,,,0.21,VWS V14.01,2013-01-11 02:22:00,
2013-01-10 20:27:00,33.4,31.6,29.86,SE,130,6.0,9.0,93,0.08,,,0.22,VWS V14.01,2013-01-11 02:27:00,
2013-01-10 20:30:00,33.5,31.7,29.86,SE,130,7.0,12.0,93,0.08,,,0.22,VWS V14.01,2013-01-11 02:30:00,
2013-01-10 20:32:00,33.5,31.7,29.85,SE,130,5.0,12.0,93,0.07,,,0.22,VWS V14.01,2013-01-11 02:32:00,
2013-01-10 20:37:00,33.5,31.7,29.84,SE,135,10.0,14.0,93,0.07,,,0.22,VWS V14.01,2013-01-11 02:37:00,
2013-01-10 20:43:00,33.5,32.0,29.84,SE,135,8.0,14.0,94,0.08,,,0.23,VWS V14.01,2013-01-11 02:43:00,
2013-01-10 20:45:00,33.6,32.1,29.83,SE,137,9.0,14.0,94,0.08,,,0.23,VWS V14.01,2013-01-11 02:45:00,
2013-01-10 20:48:00,33.6,32.1,29.83,SE,135,6.0,11.0,94,0.08,,,0.23,VWS V14.01,2013-01-11 02:48:00,
2013-01-10 20:53:00,33.6,32.1,29.82,SE,138,8.0,12.0,94,0.08,,,0.23,VWS V14.01,2013-01-11 02:53:00,
2013-01-10 20:58:00,33.7,32.2,29.82,SE,142,7.0,12.0,94,0.08,,,0.23,VWS V14.01,2013-01-11 02:58:00,
2013-01-10 21:00:00,33.7,32.2,29.82,SE,142,7.0,12.0,94,0.08,,,0.23,VWS V14.01,2013-01-11 03:00:00,
2013-01-10 21:03:00,33.7,32.2,29.82,SSE,151,7.0,11.0,94,0.06,,,0.23,VWS V14.01,2013-01-11 03:03:00,
2013-01-10 21:08:00,33.8,32.3,29.82,SSE,152,5.0,11.0,94,0.06,,,0.23,VWS V14.01,2013-01-11 03:08:00,
2013-01-10 21:13:00,33.9,32.4,29.82,SE,145,6.0,11.0,94,0.06,,,0.23,VWS V14.01,2013-01-11 03:13:00,
2013-01-10 21:15:00,33.9,32.4,29.82,SE,145,5.0,11.0,94,0.06,,,0.23,VWS V14.01,2013-01-11 03:15:00,
2013-01-10 21:18:00,34.0,32.5,29.82,SSE,148,4.0,7.0,94,0.03,,,0.23,VWS V14.01,2013-01-11 03:18:00,
2013-01-10 21:24:00,34.1,32.6,29.81,SSE,153,7.0,8.0,94,0.03,,,0.23,VWS V14.01,2013-01-11 03:24:00,
2013-01-10 21:29:00,34.1,32.6,29.81,SSE,157,5.0,5.0,94,0.01,,,0.23,VWS V14.01,2013-01-11 03:29:00,
2013-01-10 21:30:00,34.1,32.6,29.81,SSE,157,4.0,8.0,94,0.03,,,0.23,VWS V14.01,2013-01-11 03:30:00,
2013-01-10 21:34:00,34.2,32.9,29.80,SE,146,8.0,13.0,95,0.01,,,0.23,VWS V14.01,2013-01-11 03:34:00,
2013-01-10 21:39:00,34.3,33.0,29.80,SSE,159,4.0,13.0,95,0.01,,,0.23,VWS V14.01,2013-01-11 03:39:00,
2013-01-10 21:44:00,34.4,33.1,29.80,SE,131,6.0,8.0,95,0.00,,,0.23,VWS V14.01,2013-01-11 03:44:00,
2013-01-10 21:45:00,34.4,33.1,29.80,South,170,4.0,13.0,95,0.01,,,0.23,VWS V14.01,2013-01-11 03:45:00,
2013-01-10 21:49:00,34.5,33.2,29.79,South,181,5.0,8.0,95,0.00,,,0.23,VWS V14.01,2013-01-11 03:49:00,
2013-01-10 21:55:00,34.6,33.3,29.79,SE,142,5.0,14.0,95,0.00,,,0.23,VWS V14.01,2013-01-11 03:55:00,
2013-01-10 22:00:00,34.6,33.3,29.79,SSW,195,9.0,9.0,95,0.00,,,0.23,VWS V14.01,2013-01-11 04:00:00,
2013-01-10 22:05:00,34.8,33.5,29.79,SSE,165,7.0,9.0,95,0.00,,,0.23,VWS V14.01,2013-01-11 04:05:00,
2013-01-10 22:10:00,34.8,33.5,29.79,SSE,153,5.0,10.0,95,0.00,,,0.23,VWS V14.01,2013-01-11 04:10:00,
2013-01-10 22:15:00,34.8,33.5,29.79,SSE,159,4.0,7.0,95,0.00,,,0.23,VWS V14.01,2013-01-11 04:15:00,
2013-01-10 22:20:00,34.8,33.5,29.79,SSW,192,7.0,7.0,95,0.00,,,0.23,VWS V14.01,2013-01-11 04:20:00,
2013-01-10 22:25:00,34.9,33.6,29.79,South,190,8.0,9.0,95,0.00,,,0.23,VWS V14.01,2013-01-11 04:25:00,
2013-01-10 22:30:00,34.9,33.6,29.79,South,169,6.0,6.0,95,0.00,,,0.23,VWS V14.01,2013-01-11 04:30:00,
2013-01-10 22:36:00,34.9,33.6,29.79,SSE,167,4.0,8.0,95,0.00,,,0.23,VWS V14.01,2013-01-11 04:36:00,
2013-01-10 22:41:00,34.8,33.5,29.79,SSE,163,6.0,8.0,95,0.00,,,0.23,VWS V14.01,2013-01-11 04:41:00,
2013-01-10 22:45:00,34.8,33.5,29.78,South,189,8.0,12.0,95,0.00,,,0.23,VWS V14.01,2013-01-11 04:45:00,
2013-01-10 22:46:00,34.9,33.6,29.78,South,170,5.0,8.0,95,0.00,,,0.23,VWS V14.01,2013-01-11 04:46:00,
2013-01-10 22:51:00,34.8,33.5,29.78,South,170,6.0,8.0,95,0.00,,,0.23,VWS V14.01,2013-01-11 04:51:00,
2013-01-10 22:56:00,34.8,33.5,29.78,SSE,163,5.0,9.0,95,0.00,,,0.23,VWS V14.01,2013-01-11 04:56:00,
2013-01-10 23:00:00,34.8,33.5,29.77,SSE,160,4.0,5.0,95,0.00,,,0.23,VWS V14.01,2013-01-11 05:00:00,
2013-01-10 23:02:00,34.8,33.8,29.77,South,184,3.0,9.0,96,0.00,,,0.23,VWS V14.01,2013-01-11 05:02:00,
2013-01-10 23:03:00,34.8,33.8,29.77,South,169,4.0,9.0,96,0.00,,,0.23,VWS V14.01,2013-01-11 05:03:00,
2013-01-10 23:04:00,34.8,33.8,29.77,SSE,162,4.0,9.0,96,0.00,,,0.23,VWS V14.01,2013-01-11 05:04:00,
2013-01-10 23:09:00,34.8,33.8,29.77,SSE,167,2.0,9.0,96,0.00,,,0.23,VWS V14.01,2013-01-11 05:09:00,
2013-01-10 23:14:00,34.8,33.8,29.77,SSE,155,2.0,5.0,96,0.00,,,0.23,VWS V14.01,2013-01-11 05:14:00,
2013-01-10 23:15:00,34.8,33.8,29.77,SSE,153,4.0,9.0,96,0.00,,,0.23,VWS V14.01,2013-01-11 05:15:00,
2013-01-10 23:19:00,34.8,33.8,29.77,South,169,7.0,10.0,96,0.00,,,0.23,VWS V14.01,2013-01-11 05:19:00,
2013-01-10 23:24:00,34.8,33.8,29.77,SSE,151,8.0,10.0,96,0.00,,,0.23,VWS V14.01,2013-01-11 05:24:00,
2013-01-10 23:29:00,34.8,33.8,29.78,SSW,196,5.0,6.0,96,0.00,,,0.23,VWS V14.01,2013-01-11 05:29:00,
2013-01-10 23:30:00,34.8,33.8,29.78,South,189,5.0,10.0,96,0.00,,,0.23,VWS V14.01,2013-01-11 05:30:00,
2013-01-10 23:35:00,34.8,33.8,29.78,SSE,165,6.0,8.0,96,0.00,,,0.23,VWS V14.01,2013-01-11 05:35:00,
2013-01-10 23:40:00,34.9,33.9,29.78,South,169,5.0,8.0,96,0.00,,,0.23,VWS V14.01,2013-01-11 05:40:00,
2013-01-10 23:45:00,34.9,33.9,29.77,SSE,161,4.0,6.0,96,0.00,,,0.23,VWS V14.01,2013-01-11 05:45:00,
2013-01-10 23:50:00,35.0,34.0,29.77,South,176,5.0,9.0,96,0.01,,,0.24,VWS V14.01,2013-01-11 05:50:00,
2013-01-10 23:55:00,35.0,34.0,29.76,SE,141,7.0,9.0,96,0.01,,,0.24,VWS V14.01,2013-01-11 05:55:00,